Date String (YYYY-MM-DD hh:mm:ss) UTC,Instrument flags,Ambient pressure (hPa),Sample flow (lpm),Bypass flow (lpm),Sample temperature (°C),Ambient temperature (°C),ASC tube jacket temperature (°C),LED temperature (°C),Box temperature (°C),Sample RH (%),Span deviation,Mass concentration (μg/m³),Mass concentration (μg/m³),Mass concentration (μg/m³)
DateTimeUTC,F1_M11,P_M11,Q1_M11,Q2_M11,T1_M11,T2_M11,T3_M11,T4_M11,T5_M11,U1_M11,ZSPAN_M11,X0_M11,X2_M11,X1_M11
2022-02-25 06:00:00,,0827.7,5.00,0.00,22.5,22.1,00.0,31.5,24.2,06.2,0000.8,0016.41,0010.93,0010.24
2022-02-25 06:01:00,,0827.6,5.00,0.00,22.5,21.9,00.0,31.5,24.1,06.3,0000.7,0016.49,0010.90,0010.22
2022-02-25 06:02:00,,0827.7,5.00,0.00,22.4,21.8,00.0,31.5,24.1,06.3,0001.1,0016.57,0010.92,0010.23
2022-02-25 06:03:00,,0827.7,5.00,0.00,22.4,21.6,00.0,31.5,24.0,06.3,0001.4,0016.57,0010.92,0010.24
2022-02-25 06:04:00,,0827.7,5.00,0.00,22.3,21.5,00.0,31.4,24.0,06.3,0000.9,0016.43,0010.90,0010.24
2022-02-25 06:05:00,,0827.6,5.00,0.00,22.3,21.6,00.0,31.4,24.0,06.3,0001.1,0016.37,0010.91,0010.27
2022-02-25 06:06:00,,0827.7,5.00,0.00,22.4,22.2,00.0,31.5,24.1,06.3,0000.9,0016.56,0010.95,0010.29
2022-02-25 06:07:00,,0827.7,4.99,0.00,22.5,22.9,00.0,31.5,24.4,06.3,0000.8,0017.10,0010.99,0010.32
2022-02-25 06:08:00,,0827.7,5.00,0.00,22.6,23.2,00.0,31.5,24.5,06.2,0000.4,0017.09,0010.98,0010.31
2022-02-25 06:09:00,,0827.7,5.01,0.00,22.6,22.9,00.0,31.5,24.5,06.2,0000.2,0017.13,0011.00,0010.32
2022-02-25 06:10:00,,0827.6,4.99,0.00,22.6,22.6,00.0,31.5,24.4,06.2,0000.2,0017.02,0011.01,0010.33
2022-02-25 06:11:00,,0827.6,4.99,0.00,22.6,22.4,00.0,31.5,24.3,06.2,0000.8,0015.67,0011.03,0010.35
2022-02-25 06:12:00,,0827.7,5.00,0.00,22.6,22.2,00.0,31.5,24.3,06.2,0000.6,0015.70,0011.07,0010.36
2022-02-25 06:13:00,,0827.6,5.01,0.00,22.5,22.0,00.0,31.5,24.2,06.3,0000.2,0015.72,0011.04,0010.34
2022-02-25 06:14:00,,0827.6,5.00,0.00,22.5,21.9,00.0,31.5,24.1,06.3,-000.1,0015.76,0011.04,0010.32
2022-02-25 06:15:00,,0827.7,5.00,0.00,22.4,21.7,00.0,31.5,24.1,06.3,0000.2,0015.77,0011.02,0010.29
2022-02-25 06:16:00,,0827.7,5.01,0.00,22.4,21.6,00.0,31.4,24.0,06.3,0000.3,0015.78,0011.00,0010.27
2022-02-25 06:17:00,,0827.7,5.00,0.00,22.3,21.5,00.0,31.4,24.0,06.2,0000.7,0015.57,0010.93,0010.23
2022-02-25 06:18:00,,0827.7,5.00,0.00,22.3,21.7,00.0,31.4,24.0,06.2,0000.8,0015.15,0010.88,0010.19
2022-02-25 06:19:00,,0827.7,4.99,0.00,22.4,22.4,00.0,31.5,24.2,06.2,0000.6,0015.24,0010.82,0010.14
2022-02-25 06:20:00,,0827.7,5.00,0.00,22.5,23.0,00.0,31.5,24.4,06.2,0000.3,0015.43,0010.76,0010.10
2022-02-25 06:21:00,,0827.7,5.00,0.00,22.6,23.0,00.0,31.5,24.5,06.2,0000.0,0015.65,0010.71,0010.06
2022-02-25 06:22:00,,0827.7,5.00,0.00,22.6,22.8,00.0,31.5,24.5,06.2,-000.4,0015.58,0010.64,0010.03
2022-02-25 06:23:00,,0827.6,5.00,0.00,22.6,22.5,00.0,31.5,24.4,06.2,-000.5,0015.54,0010.59,0010.00
2022-02-25 06:24:00,,0827.6,5.01,0.00,22.6,22.3,00.0,31.5,24.3,06.2,-000.3,0015.41,0010.58,0010.00
2022-02-25 06:25:00,,0827.6,4.99,0.00,22.5,22.1,00.0,31.5,24.3,06.2,-000.4,0015.39,0010.55,0009.98
2022-02-25 06:26:00,,0827.6,5.00,0.00,22.5,21.9,00.0,31.5,24.2,06.3,-000.8,0015.32,0010.49,0009.94
2022-02-25 06:27:00,,0827.6,5.00,0.00,22.4,21.8,00.0,31.5,24.1,06.3,-000.8,0015.34,0010.48,0009.93
2022-02-25 06:28:00,,0827.6,5.00,0.00,22.4,21.7,00.0,31.4,24.1,06.3,-001.1,0015.42,0010.50,0009.92
2022-02-25 06:29:00,,0827.5,5.00,0.00,22.3,21.6,00.0,31.4,24.0,06.3,-001.2,0015.50,0010.46,0009.90
2022-02-25 06:30:00,,0827.5,4.99,0.00,22.4,21.9,00.0,31.4,24.0,06.3,-001.1,0015.72,0010.49,0009.93
2022-02-25 06:31:00,,0827.5,4.99,0.00,22.5,22.5,00.0,31.5,24.3,06.3,-000.8,0015.71,0010.51,0009.95
2022-02-25 06:32:00,,0827.5,5.00,0.00,22.6,23.2,00.0,31.5,24.5,06.3,-000.9,0015.49,0010.49,0009.96
2022-02-25 06:33:00,,0827.6,5.02,0.00,22.7,23.1,00.0,31.5,24.6,06.3,-000.7,0015.32,0010.50,0009.96
2022-02-25 06:34:00,,0827.6,4.99,0.00,22.7,22.8,00.0,31.5,24.5,06.3,-000.7,0015.38,0010.50,0009.96
2022-02-25 06:35:00,,0827.6,5.01,0.00,22.6,22.6,00.0,31.5,24.4,06.3,-000.9,0015.72,0010.50,0009.96
2022-02-25 06:36:00,,0827.6,5.00,0.00,22.6,22.3,00.0,31.5,24.3,06.3,-000.8,0016.32,0010.52,0009.97
2022-02-25 06:37:00,,0827.6,5.00,0.00,22.6,22.1,00.0,31.5,24.3,06.3,-000.3,0016.39,0010.59,0010.00
2022-02-25 06:38:00,,0827.5,5.00,0.00,22.5,21.9,00.0,31.5,24.2,06.3,0000.0,0016.92,0010.68,0010.05
2022-02-25 06:39:00,,0827.5,5.00,0.00,22.5,21.8,00.0,31.5,24.1,06.4,0000.1,0016.99,0010.72,0010.11
2022-02-25 06:40:00,,0827.5,4.99,0.00,22.4,21.7,00.0,31.5,24.1,06.4,-000.2,0017.04,0010.84,0010.19
2022-02-25 06:41:00,,0827.5,5.00,0.00,22.4,21.6,00.0,31.5,24.0,06.4,-000.4,0016.89,0010.94,0010.26
2022-02-25 06:42:00,,0827.5,5.00,0.00,22.4,21.7,00.0,31.5,24.0,06.3,-000.7,0016.65,0010.99,0010.31
2022-02-25 06:43:00,,0827.5,5.01,0.00,22.4,22.4,00.0,31.5,24.2,06.3,-000.5,0016.59,0011.01,0010.33
2022-02-25 06:44:00,,0827.6,4.99,0.00,22.6,23.0,00.0,31.5,24.4,06.2,-000.8,0016.67,0011.05,0010.36
2022-02-25 06:45:00,,0827.6,5.00,0.00,22.7,23.1,00.0,31.5,24.5,06.2,-000.5,0016.76,0011.07,0010.37
2022-02-25 06:46:00,,0827.7,5.00,0.00,22.7,22.8,00.0,31.5,24.5,06.2,0000.0,0017.10,0011.11,0010.39
2022-02-25 06:47:00,,0827.6,5.00,0.00,22.6,22.5,00.0,31.5,24.4,06.2,-000.1,0016.46,0011.13,0010.40
2022-02-25 06:48:00,,0827.6,4.99,0.00,22.6,22.3,00.0,31.5,24.3,06.2,-000.1,0016.48,0011.13,0010.44
2022-02-25 06:49:00,,0827.6,5.01,0.00,22.5,22.1,00.0,31.5,24.2,06.2,-000.1,0016.13,0011.09,0010.44
2022-02-25 06:50:00,,0827.5,5.01,0.00,22.5,21.9,00.0,31.5,24.1,06.2,-000.2,0015.91,0011.05,0010.43
2022-02-25 06:51:00,,0827.5,5.00,0.00,22.4,21.7,00.0,31.5,24.0,06.3,-000.1,0016.32,0011.05,0010.44
2022-02-25 06:52:00,,0827.5,4.99,0.00,22.4,21.6,00.0,31.5,23.9,06.3,0000.3,0016.29,0011.05,0010.45
2022-02-25 06:53:00,,0827.5,5.02,0.00,22.3,21.5,00.0,31.4,23.9,06.3,0000.2,0016.24,0011.02,0010.45
2022-02-25 06:54:00,,0827.5,4.99,0.00,22.3,21.8,00.0,31.4,23.9,06.3,0000.3,0016.23,0011.01,0010.45
2022-02-25 06:55:00,,0827.5,4.99,0.00,22.4,22.5,00.0,31.5,24.2,06.3,0000.6,0016.29,0011.03,0010.46
2022-02-25 06:56:00,,0827.6,5.01,0.00,22.5,23.1,00.0,31.5,24.4,06.2,0000.3,0016.54,0011.08,0010.49
2022-02-25 06:57:00,,0827.6,5.00,0.00,22.6,23.3,00.0,31.5,24.5,06.2,0000.3,0016.10,0011.12,0010.54
2022-02-25 06:58:00,,0827.6,4.99,0.00,22.6,23.0,00.0,31.5,24.5,06.2,0000.5,0015.92,0011.17,0010.60
2022-02-25 06:59:00,,0827.6,5.01,0.00,22.6,22.7,00.0,31.5,24.4,06.2,0000.4,0015.96,0011.22,0010.64
